Notices

What's New in latest Release from April 7th, 2021:

- Updated Glossary, including Speed of Maximum Gust, and Total Hourly Precipitation

- Updated national and regional climate services offices contacts and prices information

- Addition of station inventory lists for 1981-2010, 1971-2000, and 1961-1990 Normals.

If you haven't already, please take our survey and provide feedback about our website: https://eccc.sondage-survey.ca/f/LanguageSelection.aspx?s=442ca660-fcf1-47c0-95a9-59707d6fd709

Hourly Data Report for March 01, 2004

SHERBROOKE A
QUEBEC

45°26'00.000" N
71°41'00.000" W
241.40 m
7028124
71610
YSC

Download Data

Hourly Data (March 2004)
Hourly Data Report for March 1, 2004
TIME
LST
Temp Definition
°C
Dew Point Definition
°C
Rel Hum Definition
%
Precip. Amount Definition
mm

Wind Dir Definition
10's deg

Wind Spd Definition
km/h
Visibility Definition
km
Stn Press Definition
kPa
Hmdx Definition


Wind Chill Definition


Weather Definition


00:00 -0.5 -6.8 62   29 11 9.7 99.05   -4  
01:00 -3.9 -8.7 69   14 4 6.4 99.12   -6  
02:00 -3.9 -8.2 72   23 7 4.0 99.15   -7  
03:00 -4.7 -9.2 71   7 6 3.2 99.19   -7  
04:00 -5.1 -10.2 67     0 0.6 99.22      
05:00 -7.1 -11.6 70   27 4 1.0 99.33   -9  
06:00 -8.1 -12.4 71     0 1.4 99.39      
07:00 -8.6 -12.6 73     0 1.8 99.47      
08:00 -5.0 -8.9 74     0 4.0 99.55     Haze
09:00 -2.0 -7.8 64   7 6 12.9 99.55   -4 Mostly Cloudy
10:00 0.4 -6.6 59   28 7 19.3 99.54     Cloudy
11:00 3.0 -5.6 53   22 4 24.1 99.50     Mostly Cloudy
12:00 4.0 -6.0 48   27 6 24.1 99.52     Mainly Clear
13:00 4.9 -6.4 44   21 7 24.1 99.50     Mainly Clear
14:00 6.7 -6.1 40     0 24.1 99.41     Mainly Clear
15:00 6.1 -6.2 41     0 24.1 99.41     Mostly Cloudy
16:00 6.8 -5.9 40     0 24.1 99.39     Mainly Clear
17:00 5.1 -6.3 43   7 4 24.1 99.32     Mostly Cloudy
18:00 0.9 -7.0 55   8 4 15.0 99.30      
19:00 -0.1 -7.0 60   9 6 15.0 99.22   -2  
20:00 0.2 -7.1 58   9 11 15.0 99.16      
21:00 0.6 -6.8 58   9 13 15.0 99.07      
22:00 0.6 -6.8 58   7 6 15.0 99.03      
23:00 0.8 -6.7 57   9 7 15.0 98.96      

Notes on Data Quality.

Legend

  • E = Estimated
  • M = Missing
  • NA = Not Available*
  • [empty] = Indicates an unobserved value
Date modified: